Location: Piotrkow Trybunalski
(51.4000°N, 19.6830°E)
Time: 07:36:33
(UTC+02:00)

STRAND 1 - Pass Details

Date: 28 February 2024
Orbit: 764 x 779 km, 98.4° (Epoch: 24 April)

Event Time Altitude Azimuth Distance (km) Brightness Sun altitude
Rises 19:16:05 0° 10° (N) 3,271 ? -19.0°
Reaches altitude 10° 19:18:32 10° 3° (N) 2,337 ? -19.3°
Maximum altitude 19:23:17 39° 295° (WNW) 1,144 ? -20.1°
Drops below altitude 10° 19:28:00 10° 228° (SW) 2,313 ? -20.8°
Sets 19:30:25 0° 221° (SW) 3,234 ? -21.1°
